WE0DX-1 Weather Reports


Display with metric or nautical units.
time (UTC)temp
F
wind
direction
speed
MPH
gust
MPH
rain 1hr
in
rain 24hr
in
rain mn
in
humidity
%
barometer
mb
20260903012019 90 106 0.0 0.0 0.00 0.00 0.00 47 1011.9
20260903011519 90 127 0.0 0.0 0.00 0.00 0.00 48 1011.3
20260903011014 91 94 0.0 0.0 0.00 0.00 0.00 48 1011.4
20260903010509 91 106 0.0 0.0 0.00 0.00 0.00 48 1011.5
20260903010007 91 95 0.0 0.0 0.00 0.00 0.00 47 1011.5
20260903005502 92 93 0.0 0.0 0.00 0.00 0.00 47 1011.7
20260903004958 92 112 0.0 0.0 0.00 0.00 0.00 45 1011.4
20260903004458 93 95 0.0 0.0 0.00 0.00 0.00 45 1011.5
20260903003954 93 102 0.0 0.0 0.00 0.00 0.00 45 1011.5
20260903003449 93 102 0.0 0.0 0.00 0.00 0.00 45 1011.5
20260903002944 93 103 0.0 0.0 0.00 0.00 0.00 44 1011.5
20260903002444 93 126 0.0 0.0 0.00 0.00 0.00 44 1011.4
20260903001944 93 106 0.0 0.0 0.00 0.00 0.00 44 1011.7
20260903001444 94 98 0.0 0.0 0.00 0.00 0.00 45 1011.4
20260903000938 94 93 0.0 0.0 0.00 0.00 0.00 44 1011.7
20260903000434 94 115 0.0 0.0 0.00 0.00 0.00 44 1011.5
20260902235932 94 97 0.0 0.0 0.00 0.00 0.00 44 1011.4
20260902235427 95 98 0.0 0.0 0.00 0.00 0.00 44 1011.6
20260902234926 95 89 0.0 0.0 0.00 0.00 0.00 43 1011.7
20260902234421 95 108 0.0 0.0 0.00 0.00 0.00 43 1011.6
20260902233921 95 156 2.0 6.0 0.00 0.00 0.00 43 1011.5
20260902233415 95 128 0.0 0.0 0.00 0.00 0.00 43 1011.5
20260902232915 96 130 0.0 0.0 0.00 0.00 0.00 43 1011.5
20260902232410 96 126 0.0 0.0 0.00 0.00 0.00 43 1011.8
20260902231909 96 105 0.0 0.0 0.00 0.00 0.00 43 1011.4
20260902231403 96 129 1.0 3.0 0.00 0.00 0.00 42 1011.6
20260902230852 96 101 0.0 0.0 0.00 0.00 0.00 42 1011.7
20260902230352 96 109 0.0 2.0 0.00 0.00 0.00 42 1011.7
20260902225846 97 83 0.0 0.0 0.00 0.00 0.00 42 1011.7
20260902225342 96 172 2.0 5.0 0.00 0.00 0.00 41 1011.8
20260902224840 97 123 0.0 1.0 0.00 0.00 0.00 41 1011.8
20260902224335 97 106 1.0 2.0 0.00 0.00 0.00 40 1011.6
20260902223832 97 128 0.0 0.0 0.00 0.00 0.00 40 1011.5
20260902223331 97 57 0.0 7.0 0.00 0.00 0.00 40 1011.7
20260902222831 97 200 0.0 1.0 0.00 0.00 0.00 40 1011.5
20260902222329 97 224 1.0 1.0 0.00 0.00 0.00 40 1011.6
20260902221824 97 127 0.0 0.0 0.00 0.00 0.00 42 1011.7
20260902221323 98 190 0.0 0.0 0.00 0.00 0.00 41 1011.6
20260902220819 97 196 3.0 6.0 0.00 0.00 0.00 40 1011.7
20260902220319 97 99 0.0 2.0 0.00 0.00 0.00 42 1011.6
20260902215814 97 190 3.0 6.0 0.00 0.00 0.00 40 1011.7
20260902215309 97 114 0.0 0.0 0.00 0.00 0.00 42 1011.6
20260902214805 97 100 0.0 0.0 0.00 0.00 0.00 41 1011.9
20260902214304 97 212 2.0 5.0 0.00 0.00 0.00 41 1011.9
20260902213800 97 64 1.0 2.0 0.00 0.00 0.00 40 1012.1
20260902213255 97 217 3.0 3.0 0.00 0.00 0.00 42 1012.0
20260902212753 97 177 0.0 6.0 0.00 0.00 0.00 41 1011.9
20260902212250 97 127 0.0 0.0 0.00 0.00 0.00 42 1012.2
20260902211745 96 179 0.0 1.0 0.00 0.00 0.00 43 1012.1
20260902211241 96 201 1.0 2.0 0.00 0.00 0.00 43 1012.4
20260902210735 97 179 3.0 5.0 0.00 0.00 0.00 42 1012.1
20260902210230 98 214 0.0 0.0 0.00 0.00 0.00 43 1012.7
20260902205728 98 174 2.0 3.0 0.00 0.00 0.00 42 1012.5
20260902205224 98 197 2.0 3.0 0.00 0.00 0.00 43 1012.2
20260902204719 98 154 4.0 6.0 0.00 0.00 0.00 42 1012.7
20260902204214 98 130 0.0 2.0 0.00 0.00 0.00 41 1012.4
20260902203709 98 151 0.0 2.0 0.00 0.00 0.00 42 1012.7
20260902203203 98 199 2.0 5.0 0.00 0.00 0.00 40 1012.4
20260902202653 98 188 3.0 3.0 0.00 0.00 0.00 38 1012.9
20260902202149 98 131 2.0 9.0 0.00 0.00 0.00 41 1012.8
20260902201645 98 192 0.0 0.0 0.00 0.00 0.00 42 1013.0
20260902201139 98 142 0.0 0.0 0.00 0.00 0.00 41 1013.0
20260902200633 99 150 3.0 5.0 0.00 0.00 0.00 40 1013.0
20260902200130 99 121 1.0 2.0 0.00 0.00 0.00 42 1013.2
20260902195625 98 106 5.0 11.0 0.00 0.00 0.00 43 1013.0
20260902195125 98 73 0.0 0.0 0.00 0.00 0.00 42 1013.1
20260902194624 98 124 0.0 3.0 0.00 0.00 0.00 43 1013.3
20260902194119 98 154 3.0 8.0 0.00 0.00 0.00 43 1013.0
20260902193615 98 209 3.0 3.0 0.00 0.00 0.00 42 1013.3
20260902193114 98 136 0.0 1.0 0.00 0.00 0.00 43 1013.3
20260902192613 97 204 2.0 3.0 0.00 0.00 0.00 44 1013.4
20260902192112 98 139 0.0 5.0 0.00 0.00 0.00 43 1013.4
20260902191607 98 119 1.0 2.0 0.00 0.00 0.00 45 1013.5
20260902191101 97 127 3.0 6.0 0.00 0.00 0.00 43 1013.4
20260902190557 98 115 2.0 7.0 0.00 0.00 0.00 44 1013.6
20260902190052 98 76 0.0 3.0 0.00 0.00 0.00 46 1013.5
20260902185548 97 154 3.0 8.0 0.00 0.00 0.00 45 1013.8
20260902185044 96 211 1.0 5.0 0.00 0.00 0.00 47 1014.0
20260902184538 97 184 0.0 0.0 0.00 0.00 0.00 46 1014.0
20260902184034 96 133 0.0 2.0 0.00 0.00 0.00 46 1014.0
20260902183530 96 145 3.0 6.0 0.00 0.00 0.00 46 1014.1
20260902183026 97 115 2.0 3.0 0.00 0.00 0.00 47 1014.4
20260902182522 96 146 6.0 9.0 0.00 0.00 0.00 47 1014.2
20260902182018 96 118 0.0 1.0 0.00 0.00 0.00 46 1014.3
20260902181514 97 156 0.0 6.0 0.00 0.00 0.00 48 1014.2
20260902181008 96 157 0.0 0.0 0.00 0.00 0.00 50 1014.4
20260902180509 96 143 0.0 0.0 0.00 0.00 0.00 49 1014.6
20260902180006 95 209 0.0 1.0 0.00 0.00 0.00 49 1014.3
20260902175459 95 165 1.0 3.0 0.00 0.00 0.00 48 1014.4
20260902174955 95 253 2.0 3.0 0.00 0.00 0.00 49 1014.6
20260902174451 96 140 1.0 7.0 0.00 0.00 0.00 50 1014.5
20260902173946 96 79 1.0 2.0 0.00 0.00 0.00 49 1014.7
20260902173446 95 79 0.0 0.0 0.00 0.00 0.00 51 1014.8
20260902172941 95 122 0.0 0.0 0.00 0.00 0.00 50 1014.9
20260902172440 95 209 0.0 0.0 0.00 0.00 0.00 51 1015.0
20260902171936 94 213 0.0 7.0 0.00 0.00 0.00 50 1014.8
20260902171431 93 133 1.0 2.0 0.00 0.00 0.00 51 1015.2
20260902170927 93 247 3.0 3.0 0.00 0.00 0.00 51 1015.0
20260902170422 93 192 2.0 3.0 0.00 0.00 0.00 51 1015.0
20260902165918 93 209 2.0 2.0 0.00 0.00 0.00 52 1015.2
20260902165417 93 184 3.0 3.0 0.00 0.00 0.00 51 1015.1
20260902164912 93 214 3.0 5.0 0.00 0.00 0.00 53 1015.2
20260902164407 92 160 1.0 3.0 0.00 0.00 0.00 53 1015.2
20260902163906 92 201 0.0 2.0 0.00 0.00 0.00 54 1015.4
20260902163401 93 149 0.0 1.0 0.00 0.00 0.00 52 1015.4
20260902162859 92 86 0.0 2.0 0.00 0.00 0.00 54 1015.1
20260902162355 92 151 0.0 0.0 0.00 0.00 0.00 54 1015.1
20260902161854 92 180 0.0 2.0 0.00 0.00 0.00 53 1014.9
20260902161349 92 102 2.0 5.0 0.00 0.00 0.00 54 1015.1
20260902160846 92 114 1.0 1.0 0.00 0.00 0.00 54 1015.2
20260902160341 91 113 0.0 2.0 0.00 0.00 0.00 55 1015.4
20260902155839 91 184 0.0 2.0 0.00 0.00 0.00 55 1015.2
20260902155338 91 144 0.0 0.0 0.00 0.00 0.00 55 1015.3
20260902154833 91 143 0.0 0.0 0.00 0.00 0.00 56 1015.2
20260902154329 91 78 0.0 1.0 0.00 0.00 0.00 56 1015.4
20260902153828 90 105 0.0 0.0 0.00 0.00 0.00 58 1015.1
20260902153327 89 96 0.0 2.0 0.00 0.00 0.00 58 1015.1
20260902152823 88 224 4.0 7.0 0.00 0.00 0.00 58 1015.3
20260902152319 89 199 0.0 0.0 0.00 0.00 0.00 59 1015.1
20260902151814 88 175 0.0 0.0 0.00 0.00 0.00 58 1015.1
20260902151309 88 198 2.0 5.0 0.00 0.00 0.00 58 1015.3
20260902150804 88 172 2.0 5.0 0.00 0.00 0.00 58 1015.2
20260902150300 88 160 2.0 2.0 0.00 0.00 0.00 58 1015.3
20260902145759 87 109 1.0 2.0 0.00 0.00 0.00 59 1015.1
20260902145254 87 159 4.0 5.0 0.00 0.00 0.00 58 1015.3
20260902144750 87 123 0.0 0.0 0.00 0.00 0.00 59 1015.2
20260902144246 87 135 0.0 0.0 0.00 0.00 0.00 59 1015.1
20260902143740 86 146 2.0 3.0 0.00 0.00 0.00 60 1015.1
20260902143236 86 138 0.0 0.0 0.00 0.00 0.00 59 1015.3
20260902142731 86 172 0.0 0.0 0.00 0.00 0.00 61 1015.4
20260902142227 86 113 0.0 0.0 0.00 0.00 0.00 60 1015.1
20260902141727 86 139 0.0 2.0 0.00 0.00 0.00 61 1015.1
20260902141223 85 165 0.0 0.0 0.00 0.00 0.00 60 1015.4
20260902140713 85 124 0.0 0.0 0.00 0.00 0.00 61 1015.4
20260902140213 84 127 0.0 0.0 0.00 0.00 0.00 61 1015.2
20260902135712 84 189 2.0 2.0 0.00 0.00 0.00 61 1015.3
20260902135208 84 136 0.0 1.0 0.00 0.00 0.00 63 1015.0
20260902134707 83 172 0.0 0.0 0.00 0.00 0.00 63 1015.3
20260902134203 83 95 0.0 5.0 0.00 0.00 0.00 64 1015.3
20260902133657 82 138 0.0 2.0 0.00 0.00 0.00 64 1015.2
20260902133156 82 158 0.0 0.0 0.00 0.00 0.00 64 1015.1
20260902132647 82 111 0.0 0.0 0.00 0.00 0.00 64 1014.9
20260902132142 82 120 1.0 2.0 0.00 0.00 0.00 64 1015.2
20260902131638 82 129 1.0 5.0 0.00 0.00 0.00 65 1015.0
20260902131133 81 167 1.0 1.0 0.00 0.00 0.00 65 1015.1
20260902130629 81 95 0.0 0.0 0.00 0.00 0.00 65 1015.0
20260902130124 81 131 1.0 5.0 0.00 0.00 0.00 65 1015.2
20260902125620 81 114 0.0 0.0 0.00 0.00 0.00 66 1015.1
20260902125115 81 90 0.0 0.0 0.00 0.00 0.00 65 1015.2
20260902124612 81 158 0.0 0.0 0.00 0.00 0.00 66 1015.0
20260902124111 80 124 0.0 0.0 0.00 0.00 0.00 66 1014.7
20260902123607 80 97 0.0 0.0 0.00 0.00 0.00 66 1014.8
20260902123102 80 108 0.0 0.0 0.00 0.00 0.00 66 1015.0
20260902122601 80 101 1.0 6.0 0.00 0.00 0.00 66 1014.8
20260902122057 80 108 0.0 2.0 0.00 0.00 0.00 66 1015.0
20260902121557 80 117 0.0 0.0 0.00 0.00 0.00 66 1014.6
20260902121052 80 112 0.0 0.0 0.00 0.00 0.00 66 1014.8
20260902120548 80 162 0.0 0.0 0.00 0.00 0.00 66 1014.7
20260902120044 80 119 0.0 0.0 0.00 0.00 0.00 66 1014.6
20260902115539 80 107 0.0 0.0 0.00 0.00 0.00 66 1014.6
20260902115035 80 119 0.0 0.0 0.00 0.00 0.00 66 1014.5
20260902114531 80 107 0.0 0.0 0.00 0.00 0.00 66 1014.5
20260902114031 80 123 0.0 0.0 0.00 0.00 0.00 66 1014.7
20260902113526 80 146 0.0 0.0 0.00 0.00 0.00 66 1014.7
20260902113022 80 146 0.0 0.0 0.00 0.00 0.00 66 1014.4
20260902112517 80 115 0.0 0.0 0.00 0.00 0.00 65 1014.7
20260902112014 80 103 0.0 0.0 0.00 0.00 0.00 65 1014.3
20260902111509 80 108 0.0 0.0 0.00 0.00 0.00 64 1014.5
20260902111005 80 135 0.0 0.0 0.00 0.00 0.00 64 1014.3
20260902110501 81 112 0.0 0.0 0.00 0.00 0.00 63 1014.5
20260902105955 81 175 0.0 0.0 0.00 0.00 0.00 64 1014.2
20260902105451 81 112 0.0 0.0 0.00 0.00 0.00 63 1014.4
20260902104950 81 116 0.0 0.0 0.00 0.00 0.00 63 1014.3
20260902104446 81 137 1.0 1.0 0.00 0.00 0.00 63 1014.5
20260902103940 81 123 0.0 0.0 0.00 0.00 0.00 62 1014.5
20260902103436 81 102 0.0 0.0 0.00 0.00 0.00 63 1014.3
20260902102930 81 275 2.0 2.0 0.00 0.00 0.00 62 1014.4
20260902102428 81 109 0.0 0.0 0.00 0.00 0.00 62 1014.4
20260902101925 81 122 0.0 0.0 0.00 0.00 0.00 63 1014.4
20260902101424 81 110 0.0 0.0 0.00 0.00 0.00 62 1014.5
20260902100923 81 118 0.0 0.0 0.00 0.00 0.00 62 1014.3
20260902100418 81 113 0.0 2.0 0.00 0.00 0.00 62 1014.2
20260902095912 81 145 0.0 0.0 0.00 0.00 0.00 61 1014.2
20260902095408 81 106 0.0 1.0 0.00 0.00 0.00 61 1014.1
20260902094907 81 97 0.0 1.0 0.00 0.00 0.00 61 1014.0
20260902094403 81 166 0.0 0.0 0.00 0.00 0.00 62 1014.2
20260902093902 81 117 0.0 0.0 0.00 0.00 0.00 62 1013.9
20260902093357 80 94 0.0 0.0 0.00 0.00 0.00 62 1014.0
20260902092856 80 137 0.0 0.0 0.00 0.00 0.00 62 1013.8
20260902092347 80 110 0.0 0.0 0.00 0.00 0.00 62 1013.9
20260902091846 81 112 0.0 0.0 0.00 0.00 0.00 62 1014.0
20260902091342 81 109 0.0 0.0 0.00 0.00 0.00 62 1014.0
20260902090838 81 119 0.0 0.0 0.00 0.00 0.00 62 1014.1
20260902090332 80 151 0.0 0.0 0.00 0.00 0.00 63 1014.0
20260902085831 81 98 0.0 0.0 0.00 0.00 0.00 62 1013.8
20260902085326 81 102 0.0 0.0 0.00 0.00 0.00 62 1013.6
20260902084821 81 114 0.0 0.0 0.00 0.00 0.00 61 1013.7
20260902084318 81 104 0.0 0.0 0.00 0.00 0.00 61 1013.9
20260902083813 81 95 0.0 0.0 0.00 0.00 0.00 61 1013.8
20260902083308 81 104 0.0 0.0 0.00 0.00 0.00 61 1013.7
20260902082803 82 102 0.0 0.0 0.00 0.00 0.00 61 1013.6
20260902082259 82 107 0.0 0.0 0.00 0.00 0.00 61 1013.5
20260902081755 82 146 0.0 0.0 0.00 0.00 0.00 60 1013.6
20260902081251 82 178 0.0 0.0 0.00 0.00 0.00 60 1013.7
20260902080751 81 114 0.0 0.0 0.00 0.00 0.00 61 1013.4
20260902080248 82 132 0.0 0.0 0.00 0.00 0.00 60 1013.6
20260902075748 82 97 0.0 0.0 0.00 0.00 0.00 60 1013.4
20260902075244 82 100 0.0 0.0 0.00 0.00 0.00 60 1013.3
20260902074743 82 92 0.0 0.0 0.00 0.00 0.00 59 1013.6
20260902074239 82 102 0.0 0.0 0.00 0.00 0.00 59 1013.7
20260902073734 82 109 0.0 0.0 0.00 0.00 0.00 59 1013.5
20260902073230 83 87 0.0 0.0 0.00 0.00 0.00 59 1013.7
20260902072726 83 100 0.0 0.0 0.00 0.00 0.00 57 1013.6
20260902072222 83 107 0.0 0.0 0.00 0.00 0.00 57 1013.6
20260902071718 83 105 0.0 0.0 0.00 0.00 0.00 57 1013.5
20260902071213 83 108 0.0 0.0 0.00 0.00 0.00 57 1013.4
20260902070709 83 112 0.0 0.0 0.00 0.00 0.00 57 1013.6
20260902070208 83 112 0.0 0.0 0.00 0.00 0.00 56 1013.5
20260902065707 83 118 0.0 0.0 0.00 0.00 0.00 56 1013.6
20260902065203 83 109 0.0 0.0 0.00 0.00 0.00 57 1013.8
20260902064658 83 102 0.0 0.0 0.00 0.00 0.00 57 1013.6
20260902064154 83 96 0.0 0.0 0.00 0.00 0.00 56 1013.6
20260902063649 83 106 0.0 0.0 0.00 0.00 0.00 56 1013.6
20260902063144 83 119 0.0 0.0 0.00 0.00 0.00 56 1013.9
20260902062644 84 100 0.0 0.0 0.00 0.00 0.00 56 1013.6
20260902062139 84 112 0.0 0.0 0.00 0.00 0.00 55 1013.6
20260902061638 84 111 0.0 0.0 0.00 0.00 0.00 55 1013.5
20260902061134 84 99 0.0 0.0 0.00 0.00 0.00 55 1013.9
20260902060630 84 99 0.0 0.0 0.00 0.00 0.00 54 1013.8
20260902060126 84 140 0.0 0.0 0.00 0.00 0.00 54 1013.7
20260902055622 85 100 0.0 0.0 0.00 0.00 0.00 54 1013.7
20260902055117 85 100 0.0 0.0 0.00 0.00 0.00 53 1013.7
20260902054612 85 104 0.0 0.0 0.00 0.00 0.00 53 1013.6
20260902054108 85 138 0.0 0.0 0.00 0.00 0.00 53 1013.7
20260902053603 85 133 0.0 0.0 0.00 0.00 0.00 53 1013.8
20260902053102 85 125 0.0 0.0 0.00 0.00 0.00 53 1013.7
20260902052556 86 103 0.0 0.0 0.00 0.00 0.00 53 1013.8
20260902052052 86 101 0.0 0.0 0.00 0.00 0.00 52 1013.8
20260902051547 86 97 0.0 0.0 0.00 0.00 0.00 52 1013.6
20260902051046 86 119 0.0 0.0 0.00 0.00 0.00 52 1013.8
20260902050541 85 114 0.0 0.0 0.00 0.00 0.00 52 1013.8
20260902050036 85 129 0.0 0.0 0.00 0.00 0.00 53 1013.8
20260902045531 86 147 0.0 0.0 0.00 0.00 0.00 52 1013.4
20260902045027 86 149 0.0 0.0 0.00 0.00 0.00 52 1013.6
20260902044522 86 165 0.0 0.0 0.00 0.00 0.00 52 1013.5
20260902044018 85 124 0.0 0.0 0.00 0.00 0.00 52 1013.5
20260902043512 86 103 0.0 0.0 0.00 0.00 0.00 52 1013.4
20260902043007 86 95 0.0 0.0 0.00 0.00 0.00 52 1013.5
20260902042507 86 122 0.0 0.0 0.00 0.00 0.00 52 1013.5
20260902042002 86 147 0.0 0.0 0.00 0.00 0.00 52 1013.4
20260902041501 86 138 0.0 0.0 0.00 0.00 0.00 52 1013.7
20260902040956 86 105 0.0 0.0 0.00 0.00 0.00 52 1013.7
20260902040451 86 95 0.0 0.0 0.00 0.00 0.00 52 1013.6
20260902035949 86 140 0.0 0.0 0.00 0.00 0.00 51 1013.6
20260902035444 86 105 0.0 0.0 0.00 0.00 0.00 52 1013.4
20260902034938 86 186 0.0 0.0 0.00 0.00 0.00 51 1013.5
20260902034433 86 101 0.0 0.0 0.00 0.00 0.00 51 1013.9
20260902033933 86 110 0.0 0.0 0.00 0.00 0.00 51 1013.7
20260902033432 86 90 0.0 0.0 0.00 0.00 0.00 52 1013.7
20260902032931 86 108 0.0 0.0 0.00 0.00 0.00 52 1013.7
20260902032426 86 84 0.0 0.0 0.00 0.00 0.00 51 1013.6
20260902031920 87 132 0.0 0.0 0.00 0.00 0.00 50 1013.3
20260902031416 87 102 0.0 0.0 0.00 0.00 0.00 50 1013.3
20260902030912 87 149 0.0 0.0 0.00 0.00 0.00 50 1013.5
20260902030406 87 111 0.0 0.0 0.00 0.00 0.00 50 1013.4
20260902025905 87 127 0.0 0.0 0.00 0.00 0.00 50 1013.3
20260902025401 88 100 0.0 0.0 0.00 0.00 0.00 49 1013.3
20260902024855 87 113 0.0 0.0 0.00 0.00 0.00 49 1013.3
20260902024351 87 125 0.0 0.0 0.00 0.00 0.00 49 1013.2
20260902023846 88 110 0.0 0.0 0.00 0.00 0.00 49 1013.0
20260902023342 88 172 0.0 0.0 0.00 0.00 0.00 48 1013.3
20260902022841 88 105 0.0 0.0 0.00 0.00 0.00 48 1013.3
20260902022336 88 97 0.0 0.0 0.00 0.00 0.00 48 1013.2
20260902021832 88 108 0.0 0.0 0.00 0.00 0.00 48 1013.2
20260902021326 88 111 0.0 0.0 0.00 0.00 0.00 48 1013.2
20260902020822 88 102 0.0 0.0 0.00 0.00 0.00 48 1013.0
20260902020319 89 106 0.0 0.0 0.00 0.00 0.00 48 1013.1
20260902015814 89 100 0.0 0.0 0.00 0.00 0.00 47 1013.0
20260902015310 89 123 0.0 0.0 0.00 0.00 0.00 47 1013.1
20260902014805 89 158 0.0 0.0 0.00 0.00 0.00 46 1012.7
20260902014302 89 104 0.0 0.0 0.00 0.00 0.00 47 1012.9
20260902013800 89 111 0.0 0.0 0.00 0.00 0.00 47 1012.8
20260902013256 89 98 0.0 0.0 0.00 0.00 0.00 48 1012.9
20260902012751 89 147 0.0 0.0 0.00 0.00 0.00 46 1012.7
20260902012247 89 87 0.0 0.0 0.00 0.00 0.00 46 1012.8